COSMOS 1375 DEB, 17103

Orbit data source: Space-Track

COSMOS 1375 DEB, 17103 is space debris in LEO originally from a launch on Sun, 06 Jun 1982 UTC launched from the Plesetsk Missile And Space Complex (PKMTR). Debris objects in space refer to the collection of defunct objects orbiting the Earth. Examples of debris include non-operational satellites, rocket bodies, and fragments generated from explosions, collisions, or faulty payload assembly.

Loading next visibility...
Identifier
17103, 1982-055AE
Orbit
LEO
Country
Flag of CISCIS
Related business
Manufacturer
Unknown
Mission
Spacecraft
Bus & Motor
Unknown
Mass
Unknown
Launch date (UTC)
1982-06-06 (44 years ago)
Launch vehicle
Unknown
Launch site
Plesetsk Missile And Space Complex (PKMTR)
Object type
Payload
Rocket body
Debris
Shape & HBR
Unknown shape, 0.1 m
Radar Cross Section
Medium (>0.1 m² and <1 m²)

Expand to show TLE details & history
Last TLE update: 2 days ago

TLE from 2 days ago
0 COSMOS 1375 DEB
1 17103U 82055AE  26171.31635622  .00000241  00000-0  32176-3 0  9996
2 17103  65.8272 128.3365 0025294 348.9799 161.1063 13.77700851 38809
Epoch: 2026-06-20T07:35Z
TLE epoch observation values (Epoch: 2026-06-20T07:35:33.177Z)
Latitude
27.03312°
Longitude
-87.25431°
Altitude
992.033 km
Speed
7.35 km/s
True Right ascension
19h 40m 39s
True Declination
26° 53' 55"
Sunlit
Object was in full shadow at epoch
Visualization orbit readout
Latitude
Unknown
Longitude
Unknown
Altitude
Unknown
Speed
Unknown
Apparent Right ascension
Unknown
Apparent Declination
Unknown
Sunlit
N/A
Visualization observer readout
Local Sidereal Time
00:39:47
Azimuth
Unknown
Elevation
Unknown
Doppler factor
Unknown
Orbital elements
Apogee altitude
989.157 km
Perigee altitude
951.981 km
Semi-major axis
7,348.706 km
Eccentricity
0.00253
Inclination
65.8272°
RAAN
128.3365°
Arg. of periapsis
348.9799°
True anomaly
161.19988°
Mean anomaly
161.1063°
Eccentric anomaly
161.15312°
Mean motion
3.4453 °/min
Orbital period
104.49 mins
BSTAR
0.00032176
Loading maneuver chart data...
Computing Atmospheric mass density...
Loading historical data...
Loading historical data...
Loading historical data...
Loading historical data...
Loading historical data...
Loading historical data...
Loading historical data...

Documentation

Showing up to 5 results
|